Miscellaneous Local Product
Issued by NWS North Platte, NE

Home | Current Version | Previous Version | Text Only | Print | Product List | Glossary On
Versions: 1 2 3 4 5 6 7 8 9 10 11 12 13 14 15 16 17 18 19 20 21 22 23 24 25 26 27 28 29 30 31 32 33 34 35 36 37 38 39 40 41 42 43 44 45 46 47 48 49 50
683
AXUS43 KLBF 241010
MISLBF


WESTERN AND NORTH CENTRAL NEBRASKA HOURLY WEATHER ROUNDUP
NATIONAL WEATHER SERVICE NORTH PLATTE NE
500 AM CDT FRI MAR 24 2017

NOTE: "FAIR" INDICATES FEW OR NO CLOUDS BELOW 12,000 FEET WITH NO
SIGNIFICANT WEATHER AND/OR OBSTRUCTIONS TO VISIBILITY.

NOTE: STATIONS NOT REPORTING VARIABLES SUCH AS SKY/WEATHER OR
PRESSURE ARE PROVIDED BY RAWS AND APRS NETWORKS AND ARE NOT UNDER
NATIONAL WEATHER SERVICE QUALITY CONTROL.

...OBSERVATIONS IN AND NEAR THE EASTERN PANHANDLE OF NEBRASKA...

CITY           SKY/WX    TMP DP  RH WIND       PRES   REMARKS
PINE RIDGE     CLOUDY    41  38  89 N8        29.99R
CHADRON        CLOUDY    40  37  89 N5        30.00R
ALLIANCE       CLOUDY    40  38  93 N20G30    29.92R WCI  30
SIDNEY         LGT RAIN  41  38  89 N20G30    29.86R
CRESCENT LAKE    N/A     41  41  99 N15G24      N/A
$$

...OBSERVATIONS IN NORTHERN NEBRASKA AND FAR SOUTHERN SOUTH DAKOTA...

CITY           SKY/WX    TMP DP  RH WIND       PRES   REMARKS
WINNER         CLOUDY    42  38  85 NW9       29.92R
VALENTINE      CLOUDY    42  36  79 N9        29.91R
THEDFORD       LGT RAIN  45  44  96 N9        29.86R
AINSWORTH      CLOUDY    40  40  98 N10       29.89R WCI  34
O`NEILL        DRIZZLE   42  41  96 N18       29.85R
ORD            CLOUDY    48  45  89 N21       29.80S
BROKEN BOW     LGT RAIN  49  46  90 N18G26    29.78S
VALENTINE NWR    N/A     41  40  97 N10G20      N/A
HALSEY           N/A     44  44 100 N7G15       N/A
BUTTE            N/A     38  36  93 NW8         N/A  WCI  32
CHAMBERS         N/A     42  41  96 N5          N/A
EWING            N/A     44  43  95 N12G21      N/A
$$

...OBSERVATIONS IN SOUTHWEST NEBRASKA AND FAR NORTHEAST COLORADO...

CITY           SKY/WX    TMP DP  RH WIND       PRES   REMARKS
WRAY           LGT RAIN N/A N/A N/A NE28G40   29.70R
HOLYOKE        LGT RAIN  46  43  87 N21G29    29.78R
IMPERIAL       LGT RAIN  49  46  90 NE30G37   29.74R FOG
OGALLALA       RAIN      46  45  93 N17G25    29.81S
NORTH PLATTE   CLOUDY    48  45  89 NE20G26   29.78F
MCCOOK         CLOUDY    52  51  97 NE21G29   29.68
LEXINGTON      CLOUDY    53  50  91 N23       29.73S
STAPLETON        N/A     44  43  96 CALM        N/A
GOTHENBURG       N/A     50  46  85 N8          N/A
CALLAWAY         N/A     46  45  96 NE15        N/A
$$

...OBSERVATIONS IN CENTRAL LINCOLN COUNTY AREA...

CITY           SKY/WX    TMP DP  RH WIND       PRES   REMARKS
N.P. AIRPORT   CLOUDY    48  45  89 NE20G26   29.78F
N.P. DOWNTOWN    N/A     47  45  92 NE12G18     N/A
N.P. SOUTHEAST   N/A     47  44  91 NE7G18      N/A
N.P. HILLCREST   N/A     46  45  96 NE22G31     N/A
$$

...SOME OBSERVATIONS FROM AROUND THE REGION...

CITY           SKY/WX    TMP DP  RH WIND       PRES   REMARKS
DENVER         LGT SNOW  33  32  96 N26       29.87R VSB 3/4 WCI  20
LIMON          TSTM      32  32 100 N39G53    29.69R VSB 3/4 WCI  16
ASPEN          CLOUDY    35  32  88 VRB7G16   29.89R WCI  29
LARAMIE        LGT SNOW  31  29  92 N20G29    29.99R FOG     WCI  19
GILLETTE       CLEAR     35  34  96 W13       30.04R WCI  26
CHEYENNE       FLURRIES  33  31  92 N21G30    29.96R WCI  21
SCOTTSBLUFF    CLOUDY    42  37  82 N18G25    29.96R
GRAND ISLAND   CLOUDY    53  53 100 NE14      29.72F
OMAHA          CLOUDY    54  50  86 NW7       29.74F
SIOUX FALLS    CLOUDY    40  38  93 N12       29.83R WCI  33
PIERRE         CLOUDY    41  36  82 N14       29.95R
RAPID CITY     CLOUDY    42  37  82 NW8       30.00R
BISMARCK       CLOUDY    30  28  92 NW3       30.01R FOG
KANSAS CITY    PTCLDY    67  49  52 S15G29    29.78F
HILL CITY      CLOUDY    54  54 100 E9        29.64R
WICHITA        CLOUDY    68  41  37 S26G37    29.68F
DODGE CITY     CLOUDY    55  46  71 S17       29.56F
OKLAHOMA CITY  CLOUDY    66  50  56 S26G36    29.75S
DALLAS         MOCLDY    69  59  70 S14       29.88F
AMARILLO       CLEAR     45  30  55 S26G35    29.62F
$$




USA.gov is the U.S. government's official web portal to all federal, state and local government web resources and services.